Temperature
16 16 16 16 15 15 15 15 15 15 15 15 15 15 15 15 15 15 15 15 15 15 15 15 15 15 15 15 15 15 15 15 15 15 15 15 15 15 15 15 15 15 15
16 16 16 16 15 15 15 15 15 15 15 15 15 15 15 15 15 15 15 15 15 15 15 15 15 15 15 15 15 15 15 15 15 15 15 15 15 15 15 15 15 15 15
16 16 16 16 15 15 15 15 15 15 15 15 15 15 15 15 15 15 15 15 15 15 15 15 15 15 15 15 15 15 15 15 15 15 15 15 15 15 15 15 15 15 15
16 16 16 15 15 15 15 15 15 15 15 15 15 15 15 15 14 14 14 14 14 14 14 14 15 15 15 15 15 15 15 15 15 15 15 14 14 15 15 15 15 15 15
16 16 15 15 15 15 15 15 15 15 15 15 15 14 14 15 15 14 14 14 14 14 14 14 14 15 15 15 15 14 14 14 14 14 14 14 14 14 15 14 14 14 14
16 15 15 15 15 15 15 15 15 15 15 15 15 15 15 15 15 14 14 14 14 14 14 14 14 14 14 14 14 14 14 14 14 14 14 14 14 14 14 14 14 14 14
15 15 15 15 15 15 15 15 15 15 15 15 15 15 14 14 14 14 14 14 14 14 14 14 14 14 14 14 14 14 14 14 14 14 14 14 14 14 14 14 14 14 14
15 15 15 15 15 15 15 15 14 14 15 15 15 15 14 14 14 14 14 14 14 14 14 14 13 14 14 14 14 14 14 14 14 14 14 13 13 13 13 13 14 13 13
15 15 15 15 15 15 15 14 14 14 14 15 15 15 15 14 14 14 14 14 14 14 14 13 13 13 13 14 14 14 14 14 13 13 13 13 13 13 13 13 13 13 13
15 15 15 15 15 15 15 14 14 14 14 14 14 15 15 15 14 14 14 14 14 14 14 13 13 13 13 13 14 13 13 13 13 13 13 13 13 13 13 13 13 13 13
15 15 15 15 15 15 15 14 14 14 14 14 14 14 15 15 15 14 14 14 14 13 13 13 13 13 13 13 13 13 13 13 13 13 13 13 13 13 13 13 13 13 13
15 15 15 15 14 14 14 14 14 14 14 14 14 14 14 14 14 14 14 14 13 13 13 13 13 13 13 13 13 13 13 13 13 13 13 13 13 13 13 13 13 13 12
14 14 14 14 14 14 14 14 14 14 14 14 14 14 14 14 14 14 14 14 14 13 13 13 13 13 13 13 13 13 13 13 13 13 13 13 13 13 13 13 13 12 12
14 14 14 14 14 14 14 14 14 14 14 14 14 14 14 14 14 14 14 14 14 13 13 13 13 13 13 13 13 13 13 13 13 13 13 13 13 13 13 13 12 12 12
14 14 14 14 14 14 14 14 14 14 14 14 14 14 14 14 14 14 14 14 14 13 13 13 13 13 13 13 13 13 13 13 13 13 13 13 13 13 13 12 12 12 12
14 14 14 14 14 14 14 14 14 14 14 14 14 14 14 14 14 14 14 14 14 14 13 13 13 13 13 13 13 13 13 13 13 13 13 13 13 13 13 12 12 12 12
14 14 14 14 14 13 13 14 13 13 13 13 13 13 13 13 13 13 13 13 14 14 14 13 13 13 13 13 13 12 12 12 12 13 13 13 12 12 12 12 12 12 12
14 14 14 13 13 13 13 13 13 13 13 13 13 13 13 13 13 13 13 13 13 13 13 13 13 13 13 12 12 12 12 12 12 12 12 12 12 12 12 12 12 12 12
13 13 13 13 13 13 13 13 13 13 13 13 13 13 13 13 13 13 13 13 13 13 13 13 13 12 12 12 12 12 12 12 12 12 12 12 12 12 12 12 12 12 11
13 13 13 13 13 13 13 13 13 13 13 13 13 13 12 12 12 13 13 13 12 12 12 12 12 12 12 12 12 12 12 12 12 12 12 12 12 12 12 12 11 11 11
13 13 13 13 13 13 13 13 13 12 12 12 12 12 12 12 12 12 12 12 12 12 12 12 12 12 12 11 12 11 11 11 11 11 11 11 11 11 11 11 11 11 11
13 13 13 13 13 13 13 13 12 12 12 12 12 12 12 12 12 12 12 12 12 12 12 12 12 12 11 11 11 11 11 11 11 11 11 11 11 11 11 11 11 11 11
12 12 12 12 12 12 12 12 12 12 12 12 11 11 11 12 12 12 12 12 12 11 12 11 11 11 11 11 11 11 11 11 11 11 11 11 11 11 11 11 11 10 10
12 12 12 12 12 12 12 12 12 12 11 11 11 11 11 11 11 11 11 11 11 11 11 11 11 11 11 11 11 11 11 10 10 11 10 10 10 11 11 10 10 10 10
11 11 11 11 11 11 11 11 11 11 11 11 11 11 11 11 11 11 11 11 11 11 11 11 11 11 11 11 10 10 10 10 10 10 10 10 10 10 10 10 10 10 10
10 11 11 10 10 10 11 11 11 11 10 10 10 10 10 10 10 10 10 10 10 10 10 10 10 10 10 10 10 10 10 10 10 10 10 10 10 9 9 10 10 10 10
Wind_Speed
3 4 4 4 5 5 4 4 6 6 7 7 8 8 8 9 10 11 11 12 12 13 12 11 11 10 10 10 10 10 10 10 10 10 10 10 10 10 10 9 9 9 9
4 3 4 4 4 5 5 6 6 5 5 6 6 7 7 8 9 10 10 11 12 12 12 11 10 10 10 10 10 10 10 10 10 10 9 10 10 9 9 9 9 9 8
5 4 4 3 4 6 6 6 6 5 4 5 5 6 5 6 7 8 9 9 9 11 11 11 10 9 8 8 8 8 9 9 9 9 9 10 10 9 9 9 8 8 8
7 5 4 3 5 6 5 3 3 4 4 4 3 3 3 3 4 6 8 8 8 8 9 10 9 9 8 7 7 8 8 9 9 9 9 9 9 9 9 9 8 8 7
7 5 3 3 5 3 2 3 4 3 3 3 2 2 2 2 3 4 5 7 8 8 8 8 9 8 7 7 7 7 8 8 8 9 9 9 9 9 8 8 7 7 8
6 4 3 4 4 3 3 3 3 3 2 2 2 2 2 2 2 3 3 5 5 6 7 7 7 7 7 7 7 7 7 7 8 8 8 8 8 8 8 7 7 7 7
4 3 3 3 3 2 2 2 2 2 1 2 2 2 2 2 3 2 3 3 3 4 7 7 6 6 5 7 7 6 6 7 7 8 8 8 8 8 7 6 7 7 7
3 3 2 2 2 2 2 2 1 1 0 0 1 1 1 1 2 2 1 2 2 3 3 5 6 7 7 7 7 7 6 6 7 7 7 7 7 7 7 7 7 7 6
3 2 2 2 2 2 2 1 1 1 1 1 1 1 1 1 0 1 1 2 2 2 2 4 5 7 8 7 7 7 8 7 7 6 6 6 5 5 6 6 6 6 6
2 2 2 2 2 2 2 1 1 1 1 1 1 1 1 2 2 0 1 1 2 2 2 3 4 7 8 8 8 8 7 7 6 5 5 5 5 5 5 5 5 6 6
1 1 1 1 1 1 2 1 1 1 1 0 0 1 1 1 1 2 1 0 1 1 2 3 4 6 8 9 9 8 7 7 6 6 5 5 4 5 5 5 5 5 5
0 1 1 1 0 1 1 1 1 1 0 1 1 0 0 0 0 1 1 1 1 1 2 2 3 5 7 8 8 8 7 7 6 6 6 5 5 5 5 4 4 4 4
0 1 0 0 0 0 1 1 0 0 1 1 0 0 0 1 0 1 1 1 1 1 1 1 2 4 6 8 8 8 7 6 6 6 6 5 5 4 4 3 3 3 3
1 1 0 1 1 0 0 1 0 1 1 1 1 1 1 1 0 1 1 2 1 0 1 1 1 3 7 8 8 8 6 6 5 5 5 4 4 4 4 3 2 2 2
1 1 2 2 1 1 0 1 0 1 1 0 0 1 1 0 1 1 1 2 3 2 1 1 1 2 6 8 8 7 6 6 5 5 4 4 5 5 5 4 3 2 2
1 1 1 2 1 1 1 1 0 1 1 0 0 0 0 1 1 1 1 0 1 2 2 1 1 2 4 5 6 7 7 7 5 5 5 4 4 5 4 4 4 4 4
0 1 1 1 1 1 1 1 1 1 1 1 1 1 1 1 1 1 1 1 0 2 3 1 1 2 2 3 4 5 7 7 5 5 5 5 4 4 4 4 4 5 6
1 2 2 2 1 1 1 1 2 2 1 1 1 1 1 1 1 1 1 1 1 1 3 2 1 1 2 2 3 3 4 5 6 6 6 6 5 5 4 4 4 4 5
2 1 2 2 2 1 1 1 1 2 1 1 0 1 1 1 1 1 1 1 1 1 2 3 2 1 1 2 2 1 2 2 4 5 6 6 6 6 5 4 4 4 5
1 2 2 2 2 2 1 1 1 1 1 1 1 0 0 1 1 1 1 1 1 1 2 2 2 1 1 1 2 1 0 1 1 3 5 6 7 7 6 6 6 6 6
1 1 0 0 1 1 0 0 1 1 1 1 0 1 1 2 2 1 1 1 1 1 1 2 2 1 1 1 1 1 1 1 1 2 2 3 5 5 6 7 7 7 7
1 1 1 1 1 1 3 3 2 1 0 0 0 0 1 2 2 2 2 3 2 2 2 2 2 2 2 2 1 2 1 1 1 2 1 2 4 3 5 7 9 10 10
1 1 1 1 1 2 3 3 3 1 1 1 0 0 1 1 2 1 1 2 2 1 1 3 2 3 2 2 2 2 2 2 3 3 1 2 2 2 4 7 10 11 12
0 0 1 1 2 1 2 2 2 1 0 0 0 0 1 1 1 2 1 1 1 1 1 1 2 2 2 2 3 3 3 2 1 1 2 2 2 2 3 5 9 11 12
1 1 1 1 2 1 2 2 1 1 0 0 0 1 1 1 2 3 2 1 1 0 1 2 2 3 2 2 2 1 1 2 2 2 1 1 1 1 2 2 7 10 11
1 1 2 1 2 2 2 2 1 1 1 1 0 0 2 2 2 2 1 1 1 1 1 0 0 0 1 2 2 2 2 3 2 2 2 1 1 0 1 2 3 5 6
Wind_Direction
95 97 93 89 90 86 75 65 67 62 57 54 65 75 80 83 87 85 84 83 81 82 82 87 87 83 82 81 80 79 79 82 83 83 81 82 84 82 82 81 81 85 86
93 88 81 77 80 81 78 76 75 69 64 61 57 61 74 88 92 95 94 87 82 81 80 83 83 82 81 79 77 77 79 79 82 81 80 81 83 83 81 80 80 81 85
95 83 77 75 79 80 78 78 75 73 75 70 61 60 63 78 96 101 102 98 91 83 80 78 76 80 82 81 80 77 80 82 85 84 83 85 84 81 80 79 78 77 81
91 83 75 74 83 79 78 74 75 66 67 65 58 58 61 66 94 109 109 106 104 97 90 83 76 74 82 85 87 83 87 85 83 83 85 87 84 81 79 81 80 78 79
79 88 82 87 88 80 73 79 80 82 82 81 84 73 57 49 56 86 97 109 111 114 109 98 84 76 78 85 89 90 92 92 87 86 87 88 87 82 78 78 81 83 79
72 85 94 89 90 77 68 69 79 87 103 113 98 83 87 84 58 47 70 86 104 118 117 119 108 87 80 80 83 91 94 98 93 91 90 91 92 87 79 80 82 82 79
73 79 82 84 86 98 111 104 98 102 130 139 100 59 39 76 94 63 63 80 81 101 116 119 120 111 95 79 76 83 87 94 97 95 92 92 94 92 86 88 90 87 82
75 81 83 91 86 88 87 92 102 93 313 255 129 131 102 24 30 62 71 81 75 67 86 111 117 112 104 96 86 81 86 91 98 98 96 93 92 92 89 93 95 91 86
79 91 93 99 121 121 125 145 148 139 252 308 54 124 143 157 71 358 55 89 93 75 63 76 91 104 107 99 93 86 81 81 89 94 92 93 96 96 94 95 96 96 92
82 91 101 108 104 103 129 175 140 145 138 301 335 340 92 133 139 118 347 59 95 98 97 85 77 90 100 101 95 94 89 83 82 85 92 95 96 100 105 102 101 103 98
96 94 100 116 109 125 153 137 98 102 146 183 270 329 6 355 169 145 181 212 67 92 105 102 95 89 96 101 99 98 94 89 81 76 83 96 102 108 111 110 110 108 103
110 134 155 178 130 106 109 105 115 142 213 250 260 238 172 253 288 144 176 180 138 130 104 99 106 108 109 108 106 106 98 90 83 74 73 83 92 103 109 115 113 109 105
176 206 72 133 336 80 110 126 109 181 235 233 266 278 256 253 275 89 124 156 133 147 110 105 126 125 123 117 117 115 107 102 92 83 79 78 80 90 94 103 111 114 111
188 181 192 213 206 128 116 118 140 229 263 212 209 206 274 283 85 99 129 131 126 115 122 156 115 124 119 124 129 128 120 122 112 99 91 86 84 87 88 85 92 107 114
203 177 199 208 171 139 107 69 262 284 303 331 270 238 245 219 136 122 130 144 151 163 185 168 139 145 127 127 139 139 134 137 131 121 114 105 97 93 89 85 90 95 111
196 185 193 200 181 176 171 156 296 294 293 228 278 322 357 19 74 91 120 160 143 153 161 173 165 155 135 141 151 149 144 142 145 142 131 122 119 110 100 93 92 89 101
179 176 213 189 169 203 190 150 218 263 286 266 234 191 154 113 113 99 81 79 79 120 140 167 140 139 123 121 126 146 147 148 149 158 153 144 138 133 122 113 103 97 99
235 210 192 201 179 193 197 176 224 255 265 289 276 224 187 160 152 148 172 175 171 139 143 151 156 146 146 151 150 163 160 156 149 161 164 162 158 151 144 137 123 118 114
224 234 205 189 174 176 192 196 215 249 237 264 300 283 230 158 155 167 179 181 178 134 132 149 176 171 167 172 157 180 170 151 158 163 168 174 174 172 170 166 161 154 144
235 247 228 179 170 167 188 194 206 231 238 246 244 287 359 127 182 180 186 177 147 131 138 144 166 179 189 202 151 159 226 225 189 161 170 177 181 184 190 191 188 181 172
285 295 317 144 129 135 171 186 223 235 229 238 303 71 71 72 55 104 112 134 132 145 151 161 177 174 191 176 199 203 209 221 247 197 176 180 172 176 194 202 202 197 192
314 338 326 91 75 48 36 33 41 325 66 103 182 111 116 88 65 86 91 115 127 150 178 179 195 191 201 187 189 195 200 190 265 251 188 229 179 188 195 197 203 201 200
306 286 291 154 118 84 69 46 25 29 54 44 88 44 347 46 71 76 116 118 114 105 142 176 193 209 199 198 188 206 211 204 228 225 181 252 229 212 208 207 203 204 205
297 299 296 186 146 102 97 68 21 335 206 60 63 100 102 89 39 31 165 141 143 192 232 181 175 205 212 207 198 205 207 212 234 241 173 227 240 231 224 205 204 204 207
250 267 269 213 152 125 109 87 68 275 237 248 39 42 82 115 44 40 60 140 153 234 37 134 163 186 187 192 187 166 183 179 230 251 231 194 244 250 255 226 206 208 213
245 249 257 223 178 163 149 139 150 214 210 191 185 82 50 53 71 58 63 93 177 220 202 292 340 219 199 190 176 183 188 191 211 248 235 184 230 217 284 263 200 200 207
Height
1524 1524 1524 1524 1524 1524 1524 1524 1524 1525 1525 1526 1526 1527 1527 1528 1528 1528 1529 1529 1529 1529 1529 1529 1529 1530 1530 1530 1530 1530 1531 1531 1532 1532 1533 1534 1534 1535 1536 1537 1537 1538 1539
1525 1526 1525 1526 1526 1526 1526 1526 1527 1527 1527 1528 1528 1529 1529 1530 1530 1530 1530 1530 1531 1531 1530 1531 1531 1531 1531 1531 1531 1531 1532 1532 1532 1533 1533 1534 1535 1536 1536 1537 1538 1538 1539
1526 1527 1527 1527 1528 1528 1528 1528 1528 1529 1529 1529 1530 1530 1531 1531 1532 1532 1532 1532 1532 1532 1532 1532 1532 1532 1531 1532 1532 1532 1532 1532 1532 1533 1534 1534 1535 1536 1536 1537 1538 1539 1539
1527 1528 1528 1528 1529 1529 1530 1530 1530 1530 1530 1531 1531 1532 1532 1533 1533 1533 1533 1533 1533 1533 1533 1533 1533 1532 1532 1532 1532 1532 1532 1532 1533 1533 1534 1534 1535 1536 1536 1537 1538 1539 1539
1528 1529 1529 1529 1530 1530 1531 1531 1531 1531 1532 1532 1533 1533 1534 1534 1534 1535 1534 1534 1534 1534 1534 1534 1534 1533 1533 1533 1532 1532 1533 1533 1533 1533 1534 1534 1535 1536 1536 1537 1538 1538 1539
1529 1529 1530 1530 1530 1531 1531 1532 1532 1532 1533 1534 1534 1534 1534 1535 1535 1535 1535 1536 1536 1535 1535 1534 1534 1533 1533 1533 1533 1533 1533 1533 1533 1533 1534 1534 1535 1536 1536 1537 1538 1539 1539
1530 1530 1530 1530 1531 1531 1532 1533 1533 1533 1534 1534 1535 1535 1536 1536 1535 1536 1536 1536 1536 1536 1535 1535 1534 1534 1533 1533 1533 1533 1533 1533 1534 1534 1534 1534 1535 1536 1536 1537 1538 1539 1539
1529 1530 1530 1531 1531 1532 1532 1533 1533 1534 1534 1535 1535 1535 1536 1537 1536 1536 1536 1536 1536 1536 1536 1536 1535 1534 1534 1534 1534 1534 1534 1534 1534 1534 1534 1535 1535 1536 1537 1537 1538 1539 1539
1529 1530 1530 1531 1531 1531 1532 1533 1533 1533 1534 1535 1535 1536 1536 1536 1536 1537 1537 1537 1536 1536 1536 1536 1536 1535 1535 1534 1534 1534 1534 1534 1534 1534 1534 1535 1535 1536 1537 1538 1538 1539 1539
1529 1530 1530 1531 1531 1531 1532 1532 1533 1533 1534 1534 1535 1535 1536 1536 1536 1537 1537 1537 1537 1536 1536 1536 1536 1536 1535 1535 1535 1534 1534 1534 1534 1535 1535 1535 1535 1536 1537 1538 1538 1539 1539
1528 1529 1529 1530 1530 1531 1531 1532 1532 1533 1533 1533 1534 1534 1535 1535 1535 1536 1536 1537 1537 1536 1536 1536 1536 1536 1535 1535 1535 1535 1535 1535 1535 1535 1535 1535 1535 1536 1537 1537 1538 1539 1539
1528 1528 1529 1529 1530 1530 1530 1531 1531 1532 1532 1533 1533 1533 1534 1534 1534 1534 1534 1535 1536 1536 1536 1536 1536 1536 1535 1535 1535 1535 1535 1535 1535 1535 1535 1535 1535 1536 1536 1537 1538 1538 1538
1527 1527 1528 1528 1529 1529 1529 1530 1530 1531 1531 1531 1532 1532 1533 1533 1533 1533 1534 1534 1535 1535 1536 1536 1536 1536 1535 1535 1535 1535 1535 1535 1535 1535 1535 1535 1535 1536 1536 1537 1537 1537 1538
1525 1526 1526 1527 1527 1528 1528 1529 1529 1529 1530 1530 1531 1531 1531 1532 1532 1532 1533 1533 1534 1535 1535 1535 1535 1535 1535 1535 1535 1535 1535 1535 1535 1535 1535 1535 1535 1535 1536 1536 1536 1536 1536
1524 1524 1525 1525 1526 1527 1527 1528 1528 1528 1528 1529 1529 1530 1530 1530 1531 1531 1532 1532 1533 1533 1534 1534 1534 1535 1535 1535 1535 1535 1535 1535 1535 1535 1535 1535 1535 1535 1535 1535 1535 1534 1533
1522 1522 1523 1523 1524 1525 1525 1526 1526 1527 1527 1527 1528 1528 1528 1529 1529 1529 1530 1531 1531 1532 1532 1533 1533 1534 1534 1534 1534 1534 1534 1534 1534 1534 1534 1534 1534 1534 1534 1534 1533 1531 1530
1520 1520 1521 1521 1522 1523 1523 1524 1525 1525 1525 1525 1526 1526 1527 1527 1528 1528 1528 1529 1530 1530 1530 1531 1532 1533 1533 1533 1533 1533 1533 1533 1533 1533 1533 1533 1533 1533 1533 1533 1532 1530 1528
1518 1519 1519 1519 1520 1521 1521 1522 1522 1523 1523 1524 1524 1524 1525 1525 1526 1526 1527 1527 1528 1528 1529 1529 1530 1531 1531 1532 1532 1532 1532 1532 1532 1532 1532 1532 1532 1532 1532 1532 1532 1531 1530
1516 1517 1517 1517 1518 1519 1519 1520 1520 1521 1521 1522 1522 1522 1523 1523 1523 1524 1524 1525 1526 1526 1527 1528 1528 1529 1529 1530 1530 1531 1531 1531 1531 1531 1531 1531 1531 1531 1531 1531 1531 1531 1531
1514 1515 1515 1515 1516 1516 1517 1518 1518 1519 1519 1520 1520 1520 1521 1521 1521 1521 1522 1523 1523 1524 1525 1525 1526 1526 1527 1528 1528 1528 1528 1529 1529 1529 1529 1529 1529 1529 1530 1530 1530 1530 1530
1512 1512 1513 1513 1514 1514 1515 1515 1516 1517 1517 1517 1518 1518 1518 1519 1519 1520 1520 1520 1521 1521 1522 1523 1523 1524 1524 1525 1525 1526 1526 1526 1527 1527 1527 1527 1527 1527 1528 1528 1528 1528 1528
1509 1510 1510 1511 1511 1511 1512 1513 1514 1514 1515 1515 1515 1516 1516 1516 1517 1517 1517 1518 1518 1519 1519 1520 1520 1521 1521 1522 1523 1523 1523 1524 1524 1525 1524 1524 1525 1525 1525 1525 1526 1526 1526
1506 1507 1507 1507 1508 1509 1510 1510 1511 1512 1512 1513 1513 1513 1513 1514 1514 1514 1514 1515 1515 1516 1517 1518 1518 1518 1519 1519 1520 1520 1521 1521 1521 1522 1522 1521 1522 1522 1523 1522 1523 1523 1524
1503 1504 1504 1505 1505 1506 1507 1508 1508 1509 1510 1510 1510 1510 1511 1511 1511 1511 1511 1512 1512 1513 1514 1515 1515 1515 1516 1517 1517 1518 1518 1518 1518 1519 1519 1518 1519 1519 1519 1520 1520 1520 1521
1500 1501 1501 1502 1502 1503 1504 1504 1505 1506 1506 1507 1507 1508 1508 1508 1508 1508 1508 1509 1509 1510 1511 1512 1512 1513 1513 1513 1514 1514 1514 1514 1514 1515 1516 1516 1515 1516 1516 1516 1517 1517 1517
1497 1498 1498 1499 1499 1500 1501 1501 1502 1503 1503 1504 1504 1504 1505 1505 1505 1505 1505 1505 1506 1507 1508 1508 1509 1509 1510 1510 1510 1511 1511 1511 1511 1511 1512 1512 1512 1512 1512 1512 1513 1513 1514